OPS 4682 DEB, 14515

Orbit data source: Space-Track

OPS 4682 DEB, 14515 is space debris in LEO originally from a launch on Sat, 03 Apr 1965 UTC launched from the Air Force Western Test Range (AFWTR). Debris objects in space refer to the collection of defunct objects orbiting the Earth. Examples of debris include non-operational satellites, rocket bodies, and fragments generated from explosions, collisions, or faulty payload assembly.

Loading next visibility...
Identifier
14515, 1965-027M
Orbit
LEO
Country
Flag of USUS
Related business
Manufacturer
Unknown
Mission
Spacecraft
Bus & Motor
Unknown
Mass
Unknown
Launch date (UTC)
1965-04-03 (61 years ago)
Launch vehicle
Unknown
Launch site
Air Force Western Test Range (AFWTR)
Object type
Payload
Rocket body
Debris
Shape & HBR
Unknown shape, 0.1 m
Radar Cross Section
Small (<0.1 m²)

Expand to show TLE details & history
Last TLE update: 2 days ago

TLE from 2 days ago
0 OPS 4682 DEB
1 14515U 65027M   25300.44626769 -.00000060  00000-0 -23322-3 0  9993
2 14515  90.2459   2.8923 0025827 319.0022  40.9156 12.97295410554135
Epoch: 2025-10-27T10:42Z
TLE epoch observation values (Epoch: 2025-10-27T10:42:37.528Z)
Latitude
-0.00008°
Longitude
166.18794°
Altitude
1,260.669 km
Speed
7.232 km/s
True Right ascension
00h 11m 34s
True Declination
0° 00' 00"
Sunlit
Object was in full shadow at epoch
Visualization orbit readout
Latitude
Unknown
Longitude
Unknown
Altitude
Unknown
Speed
Unknown
Apparent Right ascension
Unknown
Apparent Declination
Unknown
Sunlit
N/A
Visualization observer readout
Local Sidereal Time
10:33:10
Azimuth
Unknown
Elevation
Unknown
Doppler factor
Unknown
Orbital elements
Apogee altitude
1,289.585 km
Perigee altitude
1,250.08 km
Semi-major axis
7,647.97 km
Eccentricity
0.00258
Inclination
90.2459°
RAAN
2.8923°
Arg. of periapsis
319.0022°
True anomaly
41.10991°
Mean anomaly
40.9156°
Eccentric anomaly
41.01271°
Mean motion
3.24507 °/min
Orbital period
110.94 mins
BSTAR
-0.00023322
Loading maneuver chart data...
Computing Atmospheric mass density...
Loading historical data...
Loading historical data...
Loading historical data...
Loading historical data...
Loading historical data...
Loading historical data...
Loading historical data...

Documentation

Showing up to 5 results
|